[TLELIST] Archives

 

Current TLEs

December 5th 2006 PST

HST 1 20580U 90037B 06338.48359741 +.00000591 +00000-0 +33252-4 0 07593 2 20580 028.4683 019.6672 0003956 190.3436 169.7072 15.00145721710699 ISS (ZARYA) 1 25544U 98067A 06339.51611984 .00077056 00000-0 48842-3 0 1981 2 25544 051.6341 024.1435 0024402 299.9663 205.1611 15.75418745460190 CXO 1 25867U 99040B 06339.62500000 +.00000303 +00000-0 +00000-0 0 00081 2 25867 060.7540 093.3883 5973973 287.6076 358.0480 00.37800369001527 ____________________________________________________________________ These 2-Line ...Continue Reading

Current TLEs

November 30th 2006 PST

HST 1 20580U 90037B 06333.62695102 .00000511 00000-0 26965-4 0 7504 2 20580 028.4668 051.3316 0003857 142.2850 217.8012 15.00141005709964 ISS (ZARYA) 1 25544U 98067A 06334.52194444 .00031603 00000-0 18118-3 0 1648 2 25544 051.6351 049.9485 0011877 280.8855 271.6992 15.78414921459402 CXO 1 25867U 99040B 06331.66666667 +.00000525 +00000-0 +00000-0 0 00052 2 25867 060.6888 093.5962 5968126 287.6625 354.7840 00.37806148001495 ____________________________________________________________________ These 2-Line ...Continue Reading

Current TLEs

November 29th 2006 PST

HST 1 20580U 90037B 06331.63106337 +.00000486 +00000-0 +24980-4 0 07618 2 20580 028.4664 064.3425 0003764 121.9861 238.1094 15.00139406709663 ISS (ZARYA) 1 25544U 98067A 06333.49101095 .00018958 00000-0 10931-3 0 1578 2 25544 051.6337 055.2756 0010738 277.5461 172.6111 15.78656159459244 CXO 1 25867U 99040B 06331.66666667 +.00000525 +00000-0 +00000-0 0 00052 2 25867 060.6888 093.5962 5968126 287.6625 354.7840 00.37806148001495 ____________________________________________________________________ These 2-Line ...Continue Reading

Current TLEs

November 28th 2006 PST

HST 1 20580U 90037B 06330.69964823 .00000472 00000-0 23905-4 0 7481 2 20580 028.4663 070.4143 0003720 112.2368 247.8619 15.00138700709525 ISS (ZARYA) 1 25544U 98067A 06332.49413194 .00023486 00000-0 13460-3 0 1508 2 25544 051.6345 060.4270 0010428 272.1486 268.8432 15.78630615459081 CXO 1 25867U 99040B 06331.66666667 +.00000525 +00000-0 +00000-0 0 00052 2 25867 060.6888 093.5962 5968126 287.6625 354.7840 00.37806148001495 ____________________________________________________________________ These 2-Line ...Continue Reading

Current TLEs

November 27th 2006 PST

HST 1 20580U 90037B 06330.69964823 .00000472 00000-0 23905-4 0 7481 2 20580 028.4663 070.4143 0003720 112.2368 247.8619 15.00138700709525 ISS (ZARYA) 1 25544U 98067A 06331.52878828 .00020692 00000-0 11932-3 0 1463 2 25544 051.6331 065.4226 0010868 269.7346 181.5079 15.78580548458937 CXO 1 25867U 99040B 06329.04166667 +.00000525 +00000-0 +00000-0 0 00045 2 25867 060.6729 093.6494 5963250 287.6950 357.4453 00.37804013001482 ____________________________________________________________________ These 2-Line ...Continue Reading

Current TLEs

November 26th 2006 PST

HST 1 20580U 90037B 06329.63517294 .00000469 00000-0 23692-4 0 7477 2 20580 028.4659 077.3541 0003650 100.6158 259.4842 15.00137977709362 ISS (ZARYA) 1 25544U 98067A 06330.53170139 .00026826 00000-0 15370-3 0 1390 2 25544 051.6349 070.5753 0010610 263.2175 277.9408 15.78546129458777 CXO 1 25867U 99040B 06329.04166667 +.00000525 +00000-0 +00000-0 0 00045 2 25867 060.6729 093.6494 5963250 287.6950 357.4453 00.37804013001482 ____________________________________________________________________ These 2-Line ...Continue Reading

Current TLEs

November 25th 2006 PST

HST 1 20580U 90037B 06328.57069671 .00000478 00000-0 24404-4 0 7461 2 20580 028.4655 084.2939 0003574 088.9825 271.1174 15.00137316709209 ISS (ZARYA) 1 25544U 98067A 06329.18265256 .00020731 00000-0 12025-3 0 1319 2 25544 051.6371 077.5502 0010608 256.8928 172.8756 15.78451694458560 CXO 1 25867U 99040B 06329.04166667 +.00000525 +00000-0 +00000-0 0 00045 2 25867 060.6729 093.6494 5963250 287.6950 357.4453 00.37804013001482 ____________________________________________________________________ These 2-Line ...Continue Reading

Current TLEs

November 24th 2006 PST

HST 1 20580U 90037B 06326.70786148 .00000509 00000-0 26836-4 0 7454 2 20580 028.4653 096.4388 0003508 069.2933 290.8034 15.00136311708924 ISS (ZARYA) 1 25544U 98067A 06328.49056444 .00018679 00000-0 10891-3 0 1271 2 25544 051.6347 081.1264 0010964 256.0554 198.3259 15.78414005458455 CXO 1 25867U 99040B 06326.37500000 +.00000524 +00000-0 +00000-0 0 00039 2 25867 060.6594 093.6961 5958138 287.7552 354.3890 00.37803695001474 ____________________________________________________________________ These 2-Line ...Continue Reading

Current TLEs

November 23rd 2006 PST

HST 1 20580U 90037B 06326.70786148 .00000509 00000-0 26836-4 0 7454 2 20580 028.4653 096.4388 0003508 069.2933 290.8034 15.00136311708924 ISS (ZARYA) 1 25544U 98067A 06327.52818287 .00016763 00000-0 98361-4 0 1210 2 25544 051.6337 086.1011 0010967 250.3761 131.8141 15.78368449458305 CXO 1 25867U 99040B 06326.37500000 +.00000524 +00000-0 +00000-0 0 00039 2 25867 060.6594 093.6961 5958138 287.7552 354.3890 00.37803695001474 ____________________________________________________________________ These 2-Line ...Continue Reading

Current TLEs

November 22nd 2006 PST

HST 1 20580U 90037B 06324.77849593 +.00000508 +00000-0 +26770-4 0 07606 2 20580 028.4666 109.0266 0003522 049.9790 310.1105 15.00135239708637 ISS (ZARYA) 1 25544U 98067A 06326.51982752 .00015828 00000-0 93275-4 0 1150 2 25544 051.6356 091.3163 0010713 248.1038 160.6573 15.78330151458143 CXO 1 25867U 99040B 06323.62500000 +.00000510 +00000-0 +00000-0 0 00028 2 25867 060.6429 093.7339 5953736 287.8328 339.9604 00.37804306001463 ____________________________________________________________________ These 2-Line ...Continue Reading
  • This mailing list is a public mailing list - anyone may join or leave, at any time.
  • This mailing list is announce-only.

International Space Station (ISS) / Hubble Space Telescope (HST) / Chandra X-Ray Observatory Orbital Data via EMAIL

Privacy Policy:

Private list